Weather History for Hurghada, Egypt

Change the Weather History Date:

Thursday, November 14, 2013

  Actual Average Record
Temperature  
Mean Temperature 76 °F -  
Max Temperature 89 °F 74 °F 91 °F (2010)
Min Temperature 63 °F 58 °F 59 °F (2005)
Cooling Degree Days 11    
Growing Degree Days 26 (Base 50)    
Moisture  
Dew Point 55 °F    
Average Humidity 49    
Maximum Humidity 73    
Minimum Humidity 25    
Precipitation  
Precipitation 0.00 in - - ()
Sea Level Pressure  
Sea Level Pressure 29.90 in    
Wind  
Wind Speed 8 mph ()    
Max Wind Speed 16 mph    
Max Gust Speed -    
Visibility 6.0 miles    
Events      
Averages and records for this station are not official NWS values.
T = Trace of Precipitation, MM = Missing Value Source: Averaged Metar Reports

Daily Weather History Graph

Daily Weather History Graph

Search for Another Location

Airport:

Trip Planner

Search our weather history database for the weather conditions in past years. The results will help you decide how hot, cold, wet, or windy it might be!

Date:

Astronomy

Nov. 14, 2013 Rise Set
Actual Time 6:04 AM EET 4:53 PM EET
Civil Twilight 5:39 AM EET 5:18 PM EET
Nautical Twilight 5:11 AM EET 5:46 PM EET
Astronomical Twilight 4:43 AM EET 6:14 PM EET
Moon 2:49 PM EET (11/14) 2:54 AM EET (11/14)
Length of Visible Light 11h 38m
Length of Day
10h 49m
Waxing Gibbous, 89% of the Moon is Illuminated
Nov 14
Waxing Gibbous
Nov 17
Full
Nov 25
Last Quarter
Dec 3
New
Dec 9
First Quarter

Hourly Weather History & Observations

Time (EET) Temp. Heat Index Dew Point Humidity Pressure Visibility Wind Dir Wind Speed Gust Speed Precip Events Conditions
12:00 AM 69.8 °F - 50.0 °F 49% 29.92 in - WNW 11.5 mph - N/A   Clear
1:00 AM 69.8 °F - 50.0 °F 49% 29.92 in - WNW 9.2 mph - N/A   Clear
2:00 AM 70 °F - 51 °F 40% 29.91 in 6 mi WNW 11.5 mph - -  
2:00 AM 69.8 °F - 50.0 °F 49% 29.89 in - WNW 11.5 mph - N/A   Clear
3:00 AM 68.0 °F - 50.0 °F 52% 29.89 in - WNW 11.5 mph - N/A   Clear
4:00 AM 68.0 °F - 50.0 °F 52% 29.89 in - WNW 11.5 mph - N/A   Clear
5:00 AM 66 °F - 49 °F 45% 29.92 in 6 mi NW 8.1 mph - -  
5:00 AM 66.2 °F - 50.0 °F 56% 29.92 in - NW 8.1 mph - N/A   Clear
6:00 AM 64.4 °F - 50.0 °F 59% 29.92 in - WNW 5.8 mph - N/A   Clear
7:00 AM 66.2 °F - 51.8 °F 60% 29.95 in - NW 9.2 mph - N/A   Clear
8:00 AM 72 °F - 55 °F 46% 29.96 in 6 mi North 15.0 mph - -  
8:00 AM 71.6 °F - 55.4 °F 57% 29.95 in - North 15.0 mph - N/A   Clear
9:00 AM 77.0 °F - 55.4 °F 47% 29.95 in - North 15.0 mph - N/A   Clear
10:00 AM 78.8 °F - 55.4 °F 44% 29.95 in - North 13.8 mph - N/A   Clear
11:00 AM 81 °F - 55 °F 30% 29.93 in 6 mi North 16.1 mph - -  
11:00 AM 80.6 °F 80.5 °F 55.4 °F 42% 29.92 in - North 16.1 mph - N/A   Clear
12:00 PM 84.2 °F 83.0 °F 55.4 °F 37% 29.89 in - North 11.5 mph - N/A   Clear
1:00 PM 86.0 °F 84.9 °F 57.2 °F 37% 29.86 in - North 9.2 mph - N/A   Clear
2:00 PM 89 °F - 58 °F 25% 29.87 in 6 mi North 6.9 mph - -  
2:00 PM 87.8 °F 86.5 °F 57.2 °F 35% 29.86 in - North 6.9 mph - N/A   Clear
3:00 PM 89.6 °F 88.9 °F 59.0 °F 36% 29.86 in - NNE 5.8 mph - N/A   Clear
4:00 PM 87.8 °F 86.5 °F 57.2 °F 35% 29.86 in - ENE 6.9 mph - N/A   Clear
5:00 PM 80 °F - 58 °F 36% 29.87 in 6 mi Calm Calm - -   Clear
5:00 PM 80.6 °F 80.8 °F 57.2 °F 45% 29.86 in - Calm Calm - N/A   Clear
6:00 PM 73.4 °F - 57.2 °F 57% 29.86 in - Calm Calm - N/A   Clear
7:00 PM 73.4 °F - 59.0 °F 61% 29.89 in - Calm Calm - N/A   Clear
8:00 PM 70 °F - 57 °F 54% 29.91 in 6 mi Calm Calm - -  
8:00 PM 69.8 °F - 57.2 °F 64% 29.89 in - Calm Calm - N/A   Clear
9:00 PM 68.0 °F - 53.6 °F 60% 29.92 in - Calm Calm - N/A   Clear
10:00 PM 68.0 °F - 57.2 °F 68% 29.92 in - NW 6.9 mph - N/A   Clear
11:00 PM 69 °F - 60 °F 66% 29.92 in 6 mi NW 11.5 mph - -  
11:00 PM 69.8 °F - 60.8 °F 73% 29.92 in - NW 11.5 mph - N/A   Clear